Regional Weather Roundup
Issued by NWS Pendleton, OR

Home | Current Version | Previous Version | Text Only | Print | Product List | Glossary On
Versions: 1 2 3 4 5 6 7 8 9 10 11 12 13 14 15 16 17 18 19 20 21 22 23 24 25 26 27 28 29 30 31 32 33 34 35 36 37 38 39 40 41 42 43 44 45 46 47 48 49 50
982
ASUS46 KPDT 191925
RWRPDT
PENDLETON REGIONAL WEATHER ROUNDUP
NATIONAL WEATHER SERVICE PENDLETON OREGON
1100 AM PST SUN FEB 19 2017

NOTE: FAIR INDICATES FEW OR NO CLOUDS BELOW 12,000 FEET WITH NO
SIGNIFICANT WEATHER AND/OR OBSTRUCTIONS TO VISIBILITY.

# INDICATES UNOFFICIAL STATION AND DATA

WAZ520-192010-
EAST SLOPES OF WASHINGTON CASCADES

CITY            SKY/WX      TMP DP  RH  WIND    PRES   REMARKS
#CLE ELUM HS    N/A         36  32  85  E3      29.48R
#CLE ELUM LAKE  N/A         34  33  96  CALM    29.51R
#GLENWOOD       N/A         38  37  96  CALM    29.57R
#MANASTASH CYN  N/A         33  30  89  CALM    29.49R
#NELSON 3SW     N/A         32  31  96  CALM    29.73R
#NILE           N/A         37  33  85  E1      28.79R
#TEANAWAY 4NE   N/A         37  35  92  E2      N/A
#TROUT LAKE 1NE N/A         35  33  92  CALM    29.58R
#TROUT LAKE 1E  N/A         35  33  92  CALM    29.54R
$$

WAZ521-192010-
SIMCOE HIGHLANDS

CITY            SKY/WX      TMP DP  RH  WIND    PRES   REMARKS
#CENTERVILLE 1SWN/A         36  33  89  CALM    29.55R
#GOLDENDALE 1NE N/A         39  36  89  S1      N/A
#GOLDENDALE 4W  N/A         39  19  44  E1      29.57S
#GOODNOE HILLS  N/A         44  40  86  W3      29.47R
#LYLE 6NE       N/A         38  37  96  CALM    29.54R
#PITT 4SE       N/A         35  33  92  NE2     29.60R
$$

WAZ026-192010-
KITTITAS VALLEY

CITY            SKY/WX      TMP DP  RH  WIND    PRES   REMARKS
ELLENSBURG AP   CLOUDY      39  33  79  E5      29.50R
#ELLENSBURG CWU N/A         37  35  92  CALM    29.50R
#ELLENSBURG 3NE N/A         35  34  96  CALM    27.61R
#KITTITAS 4N    N/A         41  36  82  CALM    29.55R
#KITTITAS 3S    N/A         34  33  96  CALM    29.54R
#THORP 6N       N/A         32  31  96  SE8     29.56R
$$

WAZ027-192010-
YAKIMA VALLEY

CITY            SKY/WX      TMP DP  RH  WIND    PRES   REMARKS
SUNNYSIDE AP    MOCLDY      37  35  92  E8      29.55R
YAKIMA AIRPORT  CLOUDY      38  35  89  VRB3    29.54R
YAKIMA-VAGABOND MOCLDY      36  34  92  W7      29.51R
#DONALD 2NE     N/A         40  27  59  S3      28.41R
#GRANDVIEW      N/A         42  39  89  E2      29.58R
#MOXEE 2E       N/A         34   0  23  E3      29.48R
#NACHES 2SW     N/A         34  33  96  E1      29.51R
#TERRACE HTS    N/A         36  35  96  CALM    29.55R
#TOPPENISH      N/A         36  35  96  CALM    29.49R
#WEST VALLEY    N/A         35  34  96  CALM    29.56R
#W YAKIMA       N/A         35  34  96  CALM    29.58R
#WHITE SWAN 5E  N/A         37  36  96  CALM    29.58R
#WILEY CITY 3W  N/A         36  32  85  CALM    29.49R
$$

WAZ028-192010-
LOWER COLUMBIA BASIN...WASHINGTON

CITY            SKY/WX      TMP DP  RH  WIND    PRES   REMARKS
HANFORD         FOG         35  35  100 E5      29.55R VSB<1/4
PASCO           CLOUDY      38  36  92  NE3     29.58R FOG
PROSSER AWOS    N/A         45  43  93  S7      29.58R
RICHLAND AWOS   CLOUDY      38  38  100 CALM    29.59R FOG
#BENTON CITY    N/A         43  40  89  SE1     29.49S
#CONNELL 5N     N/A         36  36  100 CALM    29.59R
#CONNELL 5NW    N/A         36  36  100 CALM    29.55R
#ELTOPIA 6NW    N/A         36  36  100 CALM    28.53S
#KAHLOTUS       N/A         37  36  96  CALM    29.59R
#KENNEWICK 3S   N/A         44  42  93  SW5     29.59R
#PATERSON       N/A         37  36  96  W2      29.58R
#SAGEMOOR 2W    N/A         36  35  96  CALM    29.43R
#TOUCHET 2S     N/A         48  45  89  SW7     29.57R
#WEST PASCO     N/A         40  38  92  CALM    29.52S
$$

WAZ029-192010-
FOOTHILLS OF THE BLUES...WASHINGTON

CITY            SKY/WX      TMP DP  RH  WIND    PRES   REMARKS
WALLA WALLA AP  LGT RAIN    43  39  86  SW12    29.58R FOG WCI 37
#CLYDE 6NW      N/A         39  36  89  CALM    29.59R
#DAYTON SCHOOL  N/A         42  33  70  SW2     29.60R
#LOWDEN 2SE     N/A         45  42  89  CALM    29.55R
#PLEASANT VIEW 1N/A         37  36  96  S8      29.65R
#PRESCOTT       N/A         42  40  93  CALM    29.59R
#WHITMAN COLLEGEN/A         43  40  89  E2      29.66R
#WAITSBURG 5S   N/A         40  37  89  SW7     29.70R
#WAITSBURG 8N   N/A         39  N/A N/A S6      29.44R
#WALLA WALLA 5E N/A         43  40  89  SW9     N/A
#WHITMAN MISSIONN/A         45  41  86  S6      29.61R
$$

WAZ030-192010-
BLUE MOUNTAINS...WASHINGTON

CITY            SKY/WX      TMP DP  RH  WIND    PRES   REMARKS
#DIXIE 5SE      N/A         37  34  89  SE5     29.47R
#SKI BLUEWOOD   N/A         36  31  82  S2      29.47S
$$

ORZ009-041-WAZ024-192010-
COLUMBIA RIVER GORGE

CITY            SKY/WX      TMP DP  RH  WIND    PRES   REMARKS
HOOD RIVER AP   CLOUDY      37  37  100 CALM    29.57R
THE DALLES AP   CLOUDY      42  38  86  CALM    29.57R FOG
#ARLINGTON AIRPON/A         39  38  96  CALM    29.60R
#ARLINGTON HS   N/A         42  39  89  SW7     29.50R
#CELILO DOT     N/A         40  36  85  CALM    N/A
#LYLE           N/A         41  39  93  CALM    29.59R
#MOSIER 1S      N/A         43  39  86  CALM    29.56R
#RUFUS DOT      N/A         40  38  92  NE2     N/A
#SMITHVILLE     N/A         40  38  92  CALM    29.53F

$$

ORZ510-192010-
NORTH CENTRAL OREGON

CITY            SKY/WX      TMP DP  RH  WIND    PRES   REMARKS
#CHENOWITH 1W   N/A         36  35  96  E6      N/A
#COW CYN RST AREN/A         41  34  76  S8      N/A
#DUFUR 9E       N/A         41  33  73  SW15    29.62R WCI 33
#GRASS VALLEY 1SN/A         44  37  76  SW10    29.69R
#KENT DOT       N/A         41  25  53  N12     N/A    WCI 34
#MAUPIN SCHOOL  N/A         48  39  71  CALM    29.59R
#MORO SCHOOL    N/A         44  44  100 SW6     29.61R
#SHANIKO 5WSW   N/A         39  26  59  N18     N/A    WCI 30
#SHANIKO 4NW    N/A         39  32  76  S15G30  29.48R WCI 31
#TYGH VALLEY 2NEN/A         45  40  82  CALM    29.55S
#WAPANITIA AIRPON/A         44  35  70  SW7     29.58R
#WASCO 5NE      N/A         37  35  92  CALM    29.58R
$$

ORZ511-192010-
CENTRAL OREGON

CITY            SKY/WX      TMP DP  RH  WIND    PRES   REMARKS
BEND AIRPORT    PTCLDY      39  34  82  SW7     29.56R
MADRAS AIRPORT  PTCLDY      46  30  53  S18     29.55R WCI 39
PRINEVILLE AP   MOCLDY      41  32  70  S13     29.56R WCI 34
REDMOND AIRPORT MOCLDY      40  31  70  S16     29.55R WCI 32
#ASHWOOD SCHOOL N/A         44  31  60  SW8     29.54R
#BEND 1SW       N/A         35  32  89  SW1     N/A
#BEND-AWBREY    N/A         36  34  92  S6      29.60R
#BEND-KIM LN    N/A         38  32  79  S2      29.54R
#CULVER         N/A         43  31  62  S13     29.50R WCI 36
#CULVER 8W      N/A         45  28  51  SW3     29.58R
#LAKE BILLY CHINN/A         46  N/A N/A SW5     29.66R
#POWELL BUTTE   N/A         38  27  64  SE13    29.56R WCI 30
#PRINEVILLE 3N  N/A         42  34  73  SW10    29.59R
#WARM SPRINGS   N/A         49  33  54  CALM    29.51R

$$


ORZ509-192010-
EAST SLOPES OF OREGON CASCADES

CITY            SKY/WX      TMP DP  RH  WIND    PRES   REMARKS
SISTERS AWOS    N/A         39  28  64  SW17G24 29.54R WCI 30
#BLUE BOX PASS  N/A         34  N/A N/A SE1     N/A
#CAMP SHERMAN   N/A         39  30  70  N2      29.65R
#LA PINE 4NW    N/A         34  31  89  SW1     29.64R
#LAVA BUTTE DOT N/A         33  30  89  SE3     N/A
#SISTERS ODOT   N/A         41  N/A N/A SE8     N/A
#SISTERS 3N     N/A         42  29  60  SW3     29.55S
#SUNRIVER       N/A         34  32  92  SW1     29.62R
#TUMALO 3W      N/A         38  35  89  S5      29.46R
#WANOGA BUTTE D N/A         26  26  100 W10     N/A

$$

ORZ044-192010-
LOWER COLUMBIA BASIN...OREGON

CITY            SKY/WX      TMP DP  RH  WIND    PRES   REMARKS
HERMISTON       CLOUDY      38  38  100 E3      29.57R FOG
#BOARDMAN SCHOOLN/A         37  36  96  S2      29.59R
#BOARDMAN 8SW   N/A         37  36  96  CALM    29.59R
#ECHO 8SW       N/A         37  -55  1  CALM    29.59R
#I-84 EX 198 DOTN/A         47  37  68  N7      N/A
#IONE SCHOOL    N/A         44  29  55  CALM    29.59S
#UMATILLA       N/A         41  38  89  CALM    29.53R
$$

ORZ507-192010-
NORTHERN FOOTHILLS OF THE BLUES

CITY            SKY/WX      TMP DP  RH  WIND    PRES   REMARKS
PENDLETON AIRPT PTCLDY      46  39  76  SW7     29.54R
#ADAMS 3WNW     N/A         43  39  86  SE2     29.60R
#ATHENA         N/A         40  36  85  CALM    29.63R
#CAYUSE         N/A         43  38  82  CALM    29.59R
#HELIX SCHOOL   N/A         42  39  89  N8      29.60R
#HELIX 3N       N/A         42  40  93  N9      29.54R
#HOLDMAN 5SE    N/A         30  29  96  CALM    29.80S
#HOLDMAN 6E     N/A         43  39  86  S10     29.40R
#M-F FERNDALE   N/A         42  40  93  CALM    29.57R
#M-F GROVE ELEM N/A         44  38  79  SW6     29.57R
#M-FREEWATER 5SEN/A         42  37  82  CALM    29.59R
#PENDLETON DNTN N/A         42  41  96  CALM    29.57R
#PDT AQUATIC CTRN/A         45  45  100 NE7     29.57S
#PDT SUNRIDGE   N/A         44  41  89  CALM    29.58R
#PENDLETON 7NW  N/A         50  42  74  W7      32.16S
#PILOT ROCK 1S  N/A         52  31  44  S9      29.56R
#PILOT ROCK     N/A         50  38  63  SW8     29.57R
#TUTUILLA       N/A         46  42  86  CALM    29.60R
#UMAPINE 2E     N/A         45  41  86  CALM    29.56R
#WESTON SCHOOL  N/A         40  35  82  SW3     29.51R

$$

ORZ508-192010-
SOUTHERN FOOTHILLS OF THE BLUES

CITY            SKY/WX      TMP DP  RH  WIND    PRES   REMARKS
LEXINGTON       PTCLDY      50  36  58  SW15    29.57R
#AJAX           N/A         44  31  60  SE6     29.70S
#CONDON SCHOOL  N/A         44  35  70  S12     29.51R WCI 38
#CONDON 5W      N/A         41  33  73  S14G25  29.48R WCI 33
#HEPPNER EOC    N/A         46  33  60  SW7     29.51R
#HEPPNER 4NE    N/A         42  34  73  W8      29.58R
#LEXINGTON 2SE  N/A         50  37  61  SW10    29.52R
#MIKKALO        N/A         44  41  89  NE1     29.65S
#OLEX 4N        N/A         38  37  96  CALM    29.54S
#RUGGS 5NE      N/A         42  31  65  W7      29.69R
#RUGGS 2SW      N/A         43  34  70  SW10    29.59R

$$

ORZ502-503-192010-
BLUE MOUNTAINS

CITY            SKY/WX      TMP DP  RH  WIND    PRES   REMARKS
MEACHAM         CLOUDY      36  31  82  CALM    29.53R
#BATTLE MTN DOT N/A         36  27  69  S8      N/A
#GREENHORN 9SW  N/A         46  38  73  CALM    29.60R
#HEPPNER 15SE   N/A         37  30  75  S1      29.83R
#LADD CYN SMT   N/A         38  33  82  SE14    N/A    WCI 30
#LADD CREEK ODOTN/A         43  32  65  CALM    N/A
#LONG CREEK HS  N/A         41  33  73  SW10G24 N/A
#N POWDER DOT   N/A         42  31  65  S16     N/A    WCI 34
#PIKES PEAK     N/A         32  30  92  NW20G26 27.99S WCI 20
#TOLLGATE       N/A         29  28  96  W1      29.44R
#TROY SCHOOL    N/A         43  39  86  CALM    29.46S
#UKIAH          N/A         40  33  76  S2      29.50R
#WESTON 4E      N/A         33  32  96  S5      29.59R
$$

ORZ505-192010-
JOHN DAY BASIN

CITY            SKY/WX      TMP DP  RH  WIND    PRES   REMARKS
JOHN DAY        CLOUDY      43  27  53  CALM    29.57R
#ANTELOPE 9ESE  N/A         50  38  63  CALM    N/A
#DAYVILLE SCHOOLN/A         47  27  45  S7      29.55R
#MITCHELL       N/A         47  30  51  CALM    29.73R
#MITCHELL 8NW   N/A         41  27  57  SE7     29.39R
#MONUMENT HS    N/A         45  34  65  SE2     29.52S
#MT. VERNON 5SE N/A         42  28  57  S8      29.50R
#WINLOCK        N/A         44  38  79  NW3     29.54R
$$

ORZ506-192010-
OCHOCO AND JOHN DAY HIGHLANDS

CITY            SKY/WX      TMP DP  RH  WIND    PRES   REMARKS
#HORSE RIDGE DO N/A         36  27  69  S8      N/A
#PAULINA SCHOOL N/A         39  28  64  SW15    N/A    WCI 31
#PINE MTN OBS   N/A         27  26  96  CALM    N/A
#PRAIRIE CITY   N/A         45  31  58  SW7     29.73
#SENECA         N/A         38  N/A N/A SW9     N/A
#SENECA 9NW     N/A         37  27  67  SW5     29.61R
$$

ORZ049-192010-
GRANDE RONDE VALLEY

CITY            SKY/WX      TMP DP  RH  WIND    PRES   REMARKS
LA GRANDE       MOCLDY      48  36  63  S16     29.54R WCI 42
#COVE           N/A         45  35  68  SE6     29.60R
#COVE 6NW       N/A         44  34  68  SE7     29.59R
#ELGIN 3N       N/A         45  38  76  N1      29.55S
#ELGIN 1E       N/A         40  36  85  CALM    N/A
#IMBLER SCHOOL  N/A         42  35  76  SE5     29.54R
#ISLAND CITY 4N N/A         45  43  93  S3      29.52S
#UNION 1S       N/A         45  34  65  E12     29.58R WCI 39
$$

ORZ050-192010-
WALLOWA COUNTY

CITY            SKY/WX      TMP DP  RH  WIND    PRES   REMARKS
JOSEPH AIRPORT  CLOUDY      39  30  70  W5      29.53R
#IMNAHA SCHOOL  N/A         52  34  50  SE10    29.56S
#IMNAHA 10S     N/A         45  32  60  SW7     29.57R
#JOSEPH 3N      N/A         41  30  65  N5      29.59R
#JOSEPH 3W      N/A         39  32  76  CALM    29.43R
#LOSTINE        N/A         37  34  89  CALM    29.40R
#LOSTINE 3SE    N/A         38  35  89  N3      29.57S
#MT HOWARD 8000 N/A         22  19  88  S14G28  29.41R WCI  9
#PROMISE 1S     N/A         37  33  85  CALM    29.66F
#WALLOWA SCHOOL N/A         37  34  89  CALM    29.56R



$$



USA.gov is the U.S. government's official web portal to all federal, state and local government web resources and services.